Wind_Speed
56 57 57 58 58 59 58 57 56 54 54 54 54 55 55 56 55 55 54 54 53 52 52 52 50 50 48 47 47 47 46 46 46 46 46 47 47 46
55 56 56 57 58 57 57 56 55 54 52 51 53 53 54 54 52 52 53 52 52 51 51 50 49 48 47 47 46 47 46 46 46 46 46 47 47 47
55 55 55 55 56 56 56 56 54 54 51 50 50 50 51 51 51 51 51 51 50 49 49 49 48 46 47 46 45 46 46 46 45 45 46 46 47 47
54 55 55 54 54 54 55 55 54 53 51 49 48 48 48 48 49 49 49 49 49 48 47 47 46 45 45 44 44 44 45 44 43 44 45 45 46 46
52 52 51 53 53 53 53 53 52 51 50 47 45 45 45 46 47 47 47 46 46 45 45 45 44 43 43 44 44 44 43 43 43 44 45 45 45 44
48 49 48 48 50 51 50 50 49 50 47 46 45 43 41 42 43 43 43 43 42 41 41 41 41 41 42 42 43 43 43 42 42 42 43 43 42 42
45 45 45 45 46 47 48 47 47 47 45 44 43 41 39 40 40 39 39 41 40 40 40 39 40 40 40 40 42 42 41 41 40 40 41 40 40 41
42 42 42 41 42 43 43 44 43 43 42 42 41 39 37 38 39 38 36 37 37 37 37 38 38 38 39 40 40 40 38 38 38 38 38 38 38 39
37 37 37 37 39 40 41 42 41 41 41 40 39 38 36 36 37 35 34 35 35 36 36 37 38 37 37 38 37 37 37 37 37 36 36 35 35 36
33 33 33 33 34 36 36 38 39 38 37 36 36 36 35 35 34 33 33 34 34 34 35 36 36 35 35 35 35 34 34 35 35 34 34 33 33 33
30 31 31 31 32 32 33 35 35 34 35 34 34 34 33 33 33 33 33 33 33 32 32 33 33 33 32 32 32 32 33 32 32 31 31 30 30 32
27 27 28 28 29 29 30 31 32 32 32 32 32 32 32 33 33 33 33 32 32 31 30 31 31 30 28 29 30 31 31 30 30 29 28 28 29 30
22 24 25 25 26 26 27 28 29 30 30 31 31 30 30 31 31 31 31 30 30 29 28 28 27 26 27 27 28 28 28 28 27 25 25 26 26 26
20 21 22 22 24 25 26 27 28 29 29 29 28 27 27 29 29 27 28 28 28 27 27 26 25 25 25 26 26 26 25 24 23 22 22 23 23 24
17 18 20 21 22 23 24 25 25 26 26 26 25 25 25 25 26 25 25 25 24 25 25 24 24 23 23 23 22 22 21 19 19 19 20 20 22 23
16 17 19 20 20 22 24 25 24 24 24 24 24 24 24 24 23 22 22 21 21 21 22 22 21 20 20 19 18 18 16 16 16 17 18 19 21 22
15 17 18 18 19 21 23 23 23 23 23 23 23 23 23 22 21 21 20 19 19 20 19 19 19 18 17 16 15 14 14 15 16 17 17 18 19 20
14 16 17 18 19 21 22 22 22 22 22 22 21 21 21 21 20 19 17 17 17 17 16 17 17 16 15 14 13 13 13 14 15 16 16 17 18 18
15 16 17 18 19 20 20 21 21 21 21 19 19 19 18 19 19 18 17 16 15 15 15 15 14 13 12 12 12 12 12 13 14 15 15 16 16 17
15 16 17 16 17 19 20 19 19 20 21 19 18 17 16 17 18 18 17 15 14 14 14 14 12 11 10 10 10 10 10 11 12 14 14 15 15 15
15 16 16 16 17 18 19 19 19 19 19 18 17 16 15 15 16 16 15 15 14 13 13 12 11 10 9 9 9 10 10 11 12 13 13 12 12 13
15 15 15 16 16 16 18 19 19 19 18 17 15 15 14 14 14 14 13 12 12 13 12 12 11 9 8 7 8 9 9 10 11 11 10 10 11 11
16 15 15 16 16 16 17 18 17 18 17 16 15 14 12 12 11 11 11 12 13 12 11 10 10 9 7 7 7 7 7 8 8 8 7 8 9 10
Wind_Direction
258 257 257 256 255 255 254 253 254 253 251 251 251 251 252 252 251 251 252 252 254 256 257 258 260 263 265 267 271 274 277 280 282 285 290 291 292 293
259 258 258 257 255 255 253 252 253 253 251 250 249 249 249 250 249 250 250 251 253 255 256 257 259 261 265 266 269 272 276 279 282 284 288 290 291 293
259 259 258 257 254 253 251 251 251 252 252 249 248 248 249 249 249 250 250 250 251 253 254 255 258 261 264 266 269 272 275 278 282 285 288 289 292 293
261 259 257 255 254 253 251 250 249 250 251 249 247 248 248 248 249 249 249 249 250 251 252 253 256 260 262 266 269 272 275 278 282 285 287 289 291 293
261 259 256 254 252 251 250 248 248 248 248 248 247 248 247 247 248 248 249 248 248 250 251 252 254 258 262 265 269 273 275 279 283 285 287 289 291 293
261 258 254 253 250 249 247 246 246 245 244 245 245 246 246 245 246 246 246 245 245 247 250 251 253 256 261 265 269 272 275 278 282 285 286 288 291 294
260 254 252 250 248 247 246 244 243 242 242 243 242 244 242 242 242 242 242 241 242 245 248 250 253 257 261 265 269 272 275 277 280 283 286 288 291 295
258 252 249 246 243 244 243 240 238 238 239 240 240 241 239 238 237 239 239 239 240 244 248 250 254 258 260 264 268 271 272 275 279 283 285 288 292 296
256 251 246 242 240 240 240 236 234 235 237 238 238 237 236 235 234 235 236 238 239 245 248 251 254 257 260 263 267 270 272 274 278 282 286 289 294 298
253 247 243 240 239 237 236 231 229 233 235 236 235 232 232 231 232 233 235 238 239 244 248 252 253 255 259 262 266 269 271 274 278 283 287 291 295 299
248 242 239 237 234 234 232 228 227 229 230 230 230 229 228 228 230 234 235 237 238 243 246 248 250 253 257 261 265 270 274 276 279 283 288 293 298 300
244 239 236 231 228 227 226 225 224 224 226 226 226 224 225 226 229 233 233 235 239 243 244 245 248 252 256 262 268 272 274 276 279 282 288 293 297 300
239 233 228 226 223 222 221 219 218 219 221 221 221 221 224 226 227 231 232 236 240 241 242 244 249 253 260 265 268 271 273 276 279 283 287 292 297 300
235 226 218 216 216 217 216 215 214 215 216 216 217 219 222 223 225 229 232 237 240 238 240 243 250 256 260 262 265 270 274 277 279 282 288 292 297 302
223 213 209 208 209 210 210 209 207 210 211 212 213 216 219 219 222 228 231 234 236 239 240 245 251 256 257 260 265 270 273 275 280 284 288 292 299 305
211 206 205 205 204 204 202 202 204 206 208 211 214 214 216 219 222 224 226 231 235 239 242 247 250 252 255 260 262 263 267 274 280 285 290 296 301 306
210 202 195 191 192 195 197 199 201 204 207 209 210 213 216 217 218 221 227 232 236 239 243 244 244 247 250 253 253 259 266 273 279 286 293 299 303 306
202 194 189 187 185 186 191 194 197 199 202 205 209 213 215 213 217 221 227 231 234 237 240 241 243 243 241 240 247 258 266 275 283 290 297 301 303 306
193 189 185 183 181 184 187 189 192 196 199 200 200 204 210 214 217 220 224 226 231 232 235 235 234 232 232 236 246 257 266 277 285 292 298 302 304 308
184 182 182 180 180 183 186 189 192 194 194 196 197 201 207 213 219 223 224 226 228 229 226 222 225 228 231 239 249 261 273 282 287 293 299 304 308 312
177 175 174 175 178 180 183 186 187 189 189 191 195 201 208 212 217 220 221 224 226 222 216 215 220 228 236 247 258 271 280 285 288 293 297 302 308 313
172 170 171 173 176 180 183 184 183 184 185 187 191 198 206 210 211 210 212 216 217 213 212 213 217 227 238 254 267 279 286 290 293 296 298 303 311 320
171 170 171 172 173 175 178 179 182 184 184 185 187 192 200 203 202 201 203 205 206 208 211 215 221 229 239 254 266 275 289 298 304 309 311 315 320 328
Height
5560 5563 5566 5569 5573 5576 5580 5584 5589 5594 5602 5607 5610 5613 5616 5620 5623 5627 5631 5636 5639 5642 5644 5646 5648 5650 5651 5652 5651 5651 5649 5648 5646 5643 5640 5636 5633 5629
5544 5547 5550 5553 5556 5560 5564 5569 5573 5578 5585 5592 5595 5598 5601 5605 5609 5613 5617 5622 5626 5629 5631 5634 5636 5638 5638 5640 5640 5639 5638 5636 5635 5632 5629 5625 5622 5618
5528 5531 5535 5537 5541 5544 5548 5554 5558 5563 5569 5577 5580 5584 5587 5591 5596 5600 5604 5608 5612 5616 5619 5621 5624 5625 5627 5628 5628 5627 5627 5625 5624 5621 5618 5615 5611 5607
5512 5515 5518 5521 5525 5529 5533 5539 5544 5549 5554 5561 5567 5570 5574 5578 5582 5586 5590 5595 5600 5603 5606 5610 5612 5614 5615 5616 5616 5616 5616 5614 5612 5610 5607 5604 5600 5596
5496 5498 5502 5505 5509 5514 5518 5524 5529 5535 5540 5546 5553 5557 5561 5565 5569 5573 5578 5583 5588 5592 5595 5598 5601 5603 5604 5605 5606 5605 5605 5603 5601 5599 5596 5593 5590 5586
5480 5483 5486 5490 5495 5499 5504 5510 5515 5521 5527 5533 5539 5545 5550 5554 5557 5562 5567 5572 5577 5581 5584 5588 5590 5592 5594 5595 5595 5595 5594 5593 5591 5588 5586 5583 5580 5576
5466 5469 5472 5476 5481 5485 5491 5497 5503 5509 5515 5521 5527 5533 5539 5543 5548 5553 5557 5562 5567 5571 5574 5578 5580 5582 5583 5584 5584 5584 5584 5582 5581 5579 5576 5573 5570 5566
5454 5456 5459 5463 5468 5473 5479 5485 5492 5498 5504 5510 5517 5523 5529 5534 5538 5543 5548 5552 5557 5562 5564 5567 5570 5571 5573 5574 5575 5574 5574 5572 5571 5569 5567 5564 5560 5556
5442 5445 5448 5452 5456 5462 5468 5474 5481 5487 5494 5500 5507 5513 5519 5525 5529 5534 5538 5543 5548 5552 5555 5558 5560 5562 5564 5565 5565 5565 5564 5563 5562 5560 5557 5554 5551 5547
5432 5435 5438 5443 5447 5452 5458 5465 5472 5479 5485 5491 5497 5504 5510 5515 5520 5525 5529 5534 5539 5542 5545 5548 5550 5552 5555 5556 5556 5555 5554 5554 5553 5551 5548 5545 5542 5538
5423 5427 5430 5434 5439 5444 5450 5457 5464 5471 5477 5483 5489 5495 5501 5507 5512 5517 5521 5526 5530 5534 5537 5540 5542 5544 5546 5547 5547 5546 5546 5545 5544 5542 5540 5537 5534 5530
5416 5419 5423 5428 5433 5437 5443 5450 5457 5464 5470 5476 5481 5487 5493 5499 5505 5510 5515 5519 5523 5526 5529 5532 5534 5536 5537 5538 5538 5538 5537 5537 5536 5534 5532 5529 5526 5523
5410 5414 5418 5422 5427 5432 5438 5444 5451 5458 5464 5470 5476 5481 5487 5493 5498 5503 5508 5512 5516 5519 5522 5525 5527 5528 5530 5530 5530 5531 5530 5529 5528 5526 5525 5522 5519 5516
5405 5409 5413 5417 5423 5428 5434 5440 5446 5453 5459 5465 5471 5477 5482 5488 5493 5497 5501 5505 5509 5512 5515 5517 5520 5521 5522 5523 5524 5524 5523 5522 5521 5520 5519 5516 5513 5510
5402 5405 5410 5414 5419 5425 5431 5437 5443 5449 5455 5461 5467 5473 5478 5483 5487 5492 5495 5499 5502 5505 5508 5511 5513 5515 5516 5517 5518 5518 5517 5517 5516 5515 5513 5511 5508 5505
5400 5404 5407 5411 5417 5423 5429 5434 5440 5446 5452 5458 5463 5469 5473 5478 5483 5487 5490 5494 5497 5500 5502 5505 5507 5509 5510 5511 5512 5512 5512 5512 5511 5510 5508 5506 5504 5500
5399 5403 5406 5411 5416 5421 5427 5432 5438 5444 5449 5455 5460 5465 5470 5474 5479 5482 5486 5489 5493 5496 5498 5500 5501 5503 5505 5506 5507 5508 5508 5507 5507 5506 5504 5501 5499 5496
5398 5402 5407 5411 5415 5421 5426 5432 5437 5442 5447 5452 5457 5462 5467 5471 5475 5478 5482 5485 5488 5491 5494 5495 5497 5499 5501 5502 5503 5503 5504 5503 5502 5501 5499 5497 5495 5492
5398 5402 5406 5410 5415 5420 5425 5430 5435 5440 5445 5450 5455 5459 5464 5468 5472 5475 5478 5481 5484 5487 5489 5491 5493 5495 5497 5499 5500 5500 5500 5499 5498 5497 5495 5493 5491 5488
5399 5402 5406 5410 5414 5419 5424 5429 5434 5439 5444 5448 5453 5457 5461 5465 5469 5472 5475 5478 5481 5483 5486 5488 5491 5493 5495 5496 5496 5496 5496 5496 5495 5493 5491 5489 5487 5484
5399 5402 5406 5410 5415 5419 5424 5429 5434 5438 5443 5447 5451 5455 5459 5463 5466 5469 5472 5475 5477 5480 5483 5486 5488 5490 5491 5492 5493 5493 5493 5492 5491 5490 5488 5486 5484 5482
5399 5403 5407 5411 5415 5419 5424 5429 5433 5437 5442 5446 5450 5454 5457 5460 5463 5466 5469 5472 5475 5478 5481 5483 5485 5487 5488 5489 5490 5490 5490 5489 5488 5486 5485 5484 5482 5480
5401 5405 5408 5412 5416 5420 5424 5428 5432 5437 5441 5445 5449 5452 5455 5458 5461 5464 5467 5470 5473 5476 5479 5481 5483 5485 5486 5487 5488 5488 5487 5486 5485 5484 5483 5482 5480 5478